Regional Weather Roundup
Issued by NWS

Home | Current Version | Previous Version | Text Only | Print | Product List | Glossary On
Versions: 1 2 3 4 5 6 7 8 9 10 11 12 13 14 15 16 17 18 19 20 21 22 23 24 25 26 27
000
ASUS44 KJAN 300820
RWRMS

MISSISSIPPI HOURLY WEATHER ROUNDUP
NATIONAL WEATHER SERVICE JACKSON MS
300 AM CDT FRI SEP 30 2016

NOTE: "FAIR: INDICATES FEW OR NO CLOUDS BELOW 12,000 FEET WITH NO
SIGNIFICANT WEATHER AND/OR OBSTRUCTIONS TO VISIBILITY.

MSZ001>002-007>008-010>013-018>021-025>028-034>036-300900-
NORTHWEST MISSISSIPPI

CITY           SKY/WX    TMP DP  RH WIND       PRES   REMARKS
BATESVILLE     CLOUDY    56  53  91 CALM      30.12S
CLARKSDALE       N/A     61  59  94 CALM      30.12F
CLEVELAND      FAIR      58  55  90 CALM      30.11F
GREENWOOD      CLEAR     52  50  93 CALM      30.11F
GREENVILLE     PTCLDY    60  52  74 CALM      30.11F
OXFORD         CLOUDY    54  50  87 CALM      30.12F
TUNICA         CLOUDY    61  55  82 NW3       30.12F
WINONA         FAIR      50  50 100 CALM      30.11F
$$

MSZ003>006-009-014>017-022>024-029>033-037>039-300900-
NORTHEAST MISSISSIPPI

CITY           SKY/WX    TMP DP  RH WIND       PRES   REMARKS
COLUMBUS AFB   CLEAR     54  53  94 NW2       30.07F
CORINTH        FAIR      52  50  93 W3        30.08F
GOLDN TRIANGLE CLEAR     52  45  76 CALM      30.07F
STARKVILLE     FAIR      52  50  93 CALM      30.10F
TUPELO         CLOUDY    58  52  80 SW6       30.09S
$$

MSZ040-058-300900-
CENTRAL MISSISSIPPI

CITY           SKY/WX    TMP DP  RH WIND       PRES   REMARKS
JACKSON INTL   CLEAR     55  50  83 CALM      30.09F
JACKSON HAWKNS CLEAR     57  51  80 NW3       30.11F
MADISON        FAIR      54  50  87 CALM      30.09F
MERIDIAN KEY   CLEAR     55  49  80 CALM      30.08F
MERIDIAN NAS   CLEAR     56  48  74 W3        30.09F
VICKSBURG VKS  PTSUNNY   54  52  94 CALM      30.10F
$$

MSZ059>079-300900-
SOUTH MISSISSIPPI

CITY           SKY/WX    TMP DP  RH WIND       PRES   REMARKS
BROOKHAVEN     FAIR     N/A N/A N/A CALM      30.11S
HATTIESBURG    CLEAR     56  53  90 CALM      30.09F
LAUREL         FAIR      55  53  91 NW3       30.09S
MCCOMB         CLEAR     60  50  69 N6        30.09F
NATCHEZ        CLEAR     54  48  82 CALM      30.10F
PINE BELT      CLEAR     57  48  72 N5        30.11S
$$

MSZ080>082-300900-
COASTAL MISSISSIPPI

CITY           SKY/WX    TMP DP  RH WIND       PRES   REMARKS
BILOXI         PTCLDY    62  53  72 N5        30.06F
PASCAGOULA     PTCLDY    54  54 100 CALM      30.06F
GULFPORT       PTCLDY    61  53  75 N6        30.06F
$$

LAZ007>009-015>016-023>026-300900-
NORTHEAST LOUISIANA

CITY           SKY/WX    TMP DP  RH WIND       PRES   REMARKS
BASTROP        FAIR      56  54  91 CALM      30.13F
TALLULAH/VBURG CLEAR     50  49  96 CALM      30.11F
$$




USA.gov is the U.S. government's official web portal to all federal, state and local government web resources and services.